Retour au catalogue

FENGYUN 1C DEB

ActifSSO
NORAD 31826·DEBRIS·🇨🇳 China

Lancé May 10, 1999 depuis Taiyuan Satellite Launch Center

Loading…

Prochains Passages (prochaines 24 heures)

TLE

FraisSource: Space-Track

Époque: Sep 12, 2026, 10:39 UTC

1 31826U 99025CHQ 26255.44425448  .00000395  00000-0  19091-3 0  9990
2 31826  98.6463 244.8897 0124602 119.4971  32.8015 14.19716689996978

Suivez FENGYUN 1C DEB en temps réel avec AllMySat

Download on the App Store